Cloud_Cover
100 73 100 100 100 100 100 100 100 100 100 100 100 100 100 100 100 100 100 100 100 100
22 100 100 100 96 88 99 100 100 100 100 100 100 100 100 100 100 100 100 100 100 100
4 23 100 100 95 100 94 100 100 100 100 100 100 100 100 100 100 73 72 96 95 96
4 5 14 100 99 86 95 46 96 69 91 45 19 32 26 53 100 89 23 49 25 55
5 4 98 54 86 100 100 100 99 67 63 96 100 77 98 67 37 26 77 66 99 100
1 2 24 24 7 14 57 74 100 100 100 79 26 83 83 98 93 100 96 92 100 100
2 0 0 4 22 5 17 83 48 6 39 74 20 56 77 98 100 99 100 100 100 100
5 5 1 0 1 46 13 5 5 5 47 55 89 100 100 100 100 100 99 100 100 100
27 6 5 4 0 1 3 11 5 5 5 12 21 52 100 69 92 100 100 100 100 100
25 36 6 18 45 25 17 26 6 11 31 27 71 100 100 100 100 100 100 100 100 100
67 97 28 23 5 28 36 66 59 55 56 85 100 100 100 100 100 100 100 100 100 100
94 99 100 100 95 64 93 92 97 100 100 100 99 100 100 100 100 100 100 100 100 100
100 100 100 100 100 100 100 100 100 100 100 100 100 100 100 100 100 100 100 100 100 100
99 99 99 100 100 100 100 100 100 100 100 100 100 100 100 100 100 100 100 100 100 100